STARLINK-32641 (62236 NORAD) Tracking and Keplerian Element Data

This shows tracking and keplerian element data for the satellite.

Feedback or suggestion? Click here.




ElementValue
Catalog62236
NameSTARLINK-32641
Epoch Orbit1064
Epoch Day35.09725995
Epoch Year2025
RAAN275.2081
Inclination53.1589
Eccentricity7.74E-05
Argument of Perigee99.7637
Mean Anonmoly260.3455
Mean Motion15.39618302
Decay Rate4.87E-06
L11 62236U 24231U 25035.09725995 .00000487 00000+0 22146-4 0 9999
L22 62236 53.1589 275.2081 0000774 99.7637 260.3455 15.39618302 10640



Live tracking and technical data element details for STARLINK-32641 (NORAD 62236). STARLINK-32641 can be tracked NOW for your location showing map with azimuth and elevation plus other details from your city location.







IsCatalogInMostPopularTable: catalog: 62236, numindb: 14
Update: records affected: 1



GetName: 62236 STARLINK-32641

Hit Count: updated at: Sun, 18 May 2025 23:51:37 GMT